Temperature
24 25 24 25 25 24 24 24 24 24 24 23 23 23 24 22 21 21 21 21 21 20 19 19 18 18 17 17 17 17 16 16 16 15 15 15 15 15 15 14 14 14 14 14
25 24 25 24 24 24 24 24 24 24 24 23 23 23 24 23 22 22 22 22 21 20 20 19 18 18 18 17 17 17 16 16 16 15 15 15 15 15 15 14 14 14 14 14
24 25 24 24 24 24 24 24 24 24 23 23 23 24 24 24 22 21 21 21 21 20 20 20 19 18 18 17 17 17 16 16 16 15 15 15 15 15 14 14 14 14 14 14
24 24 24 24 24 24 24 24 23 23 23 24 23 23 24 24 23 22 21 21 21 20 20 19 19 18 18 17 17 17 16 16 16 15 15 15 15 15 15 15 14 14 14 14
24 24 24 24 24 24 24 23 23 23 23 24 24 24 24 24 24 24 23 21 21 20 20 19 18 18 18 17 17 17 16 16 16 15 15 15 15 15 15 14 14 14 14 14
24 24 24 24 24 24 23 23 23 23 24 23 24 23 24 24 24 24 23 22 21 20 19 19 18 18 17 17 17 17 16 16 16 15 15 15 15 15 14 14 14 14 14 14
23 24 24 23 23 23 24 24 23 23 23 23 23 23 24 24 24 23 23 22 21 20 19 19 18 18 17 17 17 17 16 16 16 15 15 15 15 15 14 14 14 14 14 14
23 23 24 24 24 24 24 24 23 22 23 24 23 23 24 24 23 22 22 21 20 20 19 19 18 17 17 17 17 16 16 16 16 15 15 15 15 15 14 14 14 14 14 14
23 23 23 23 23 24 24 24 24 23 23 23 24 24 24 23 23 22 22 21 20 20 19 18 18 17 17 17 17 16 16 16 16 15 15 15 15 14 14 14 14 14 14 14
24 23 23 22 23 22 23 24 23 23 22 22 23 23 24 23 23 23 22 21 20 19 19 18 18 17 17 16 16 16 16 16 16 15 15 15 15 14 14 14 14 14 14 14
23 23 23 23 23 23 22 22 23 23 23 22 22 23 24 24 23 23 22 21 20 19 19 18 18 17 17 16 16 16 16 15 15 15 15 15 15 14 14 14 14 14 14 14
23 23 23 23 23 22 23 23 23 23 23 23 23 23 24 23 23 22 22 21 20 19 18 18 18 17 17 16 16 16 16 15 15 15 15 15 15 14 14 14 14 14 14 13
22 22 22 22 22 21 22 22 22 23 23 23 22 23 24 23 22 21 21 20 20 19 18 18 17 17 17 16 16 16 16 15 15 15 15 14 14 14 14 14 14 13 13 13
21 22 22 22 22 22 22 21 21 22 22 23 23 23 23 23 22 21 21 20 19 18 18 18 17 17 16 16 16 16 15 15 15 15 14 14 14 14 14 14 14 13 13 13
21 22 22 22 22 22 21 21 21 21 22 22 23 23 23 23 22 21 20 20 19 18 18 17 17 17 16 16 16 15 15 15 15 15 14 14 14 14 14 14 14 13 13 13
21 21 21 21 21 21 21 21 21 21 22 22 22 22 23 22 21 21 20 19 18 18 17 17 17 16 16 16 16 15 15 15 15 14 14 14 14 14 14 14 13 13 13 13
20 20 20 21 21 20 21 22 22 21 22 22 22 23 23 22 21 20 20 19 18 18 17 17 17 17 16 16 16 15 15 15 15 14 14 14 14 14 14 13 13 13 13 13
20 20 20 20 20 20 22 22 21 21 22 22 22 22 21 21 20 19 18 18 18 17 17 17 17 16 16 16 15 15 15 14 14 14 14 14 14 13 13 13 13 13 13 13
19 19 20 20 20 21 21 21 21 21 21 22 21 21 20 19 19 19 18 17 17 16 16 16 16 16 16 16 15 15 15 14 14 14 14 14 13 13 13 13 13 13 12 12
18 19 19 19 19 20 21 21 20 21 21 21 20 20 19 19 21 21 17 16 16 16 16 16 16 15 15 15 15 15 14 14 14 14 14 13 13 13 13 13 13 12 12 12
18 18 18 19 19 20 21 19 19 20 21 20 19 19 18 19 20 18 16 16 15 15 15 15 15 15 15 15 15 14 14 14 14 13 13 13 13 12 12 12 12 12 12 12
19 19 18 19 19 19 19 19 20 20 19 18 18 18 17 17 17 16 16 15 15 15 15 15 15 15 15 15 14 14 14 14 13 13 13 12 12 12 12 12 12 12 12 12
19 19 19 19 20 19 18 18 18 17 18 18 17 17 16 16 16 15 15 15 15 14 14 14 14 14 14 14 14 14 14 13 13 13 12 12 12 12 12 12 12 11 11 11
18 17 18 18 19 18 17 16 16 16 16 16 16 16 16 15 15 15 15 15 14 14 14 14 14 14 14 14 14 13 13 13 12 12 12 12 11 11 11 11 11 11 11 11
17 16 17 18 18 17 16 16 16 16 15 15 15 15 15 15 15 14 14 14 14 14 14 14 14 14 13 13 13 13 13 12 12 12 11 11 11 11 11 11 11 11 11 10
16 16 17 18 18 18 17 16 16 15 15 15 15 15 15 14 14 14 14 14 14 13 13 13 13 13 13 13 13 13 12 12 12 11 11 11 10 10 10 10 10 10 10 10
Wind_Speed
3 5 5 4 4 3 3 4 4 3 1 3 6 6 5 3 5 7 7 7 7 6 6 6 6 6 5 4 4 4 4 4 3 2 1 2 2 2 2 2 3 3 3 3
6 5 3 2 3 4 5 5 4 3 1 4 5 6 4 3 5 7 7 7 7 7 7 7 7 7 6 5 4 4 4 3 3 2 1 1 1 1 2 2 2 2 2 2
6 2 3 4 5 5 5 5 5 5 4 4 6 4 2 2 3 4 6 6 6 7 7 8 7 7 6 6 5 4 4 4 3 3 2 2 2 2 2 2 2 2 2 2
5 3 4 5 5 5 4 3 4 5 6 3 4 4 1 1 2 4 4 6 6 6 7 7 7 7 7 6 5 5 5 4 4 3 3 2 1 1 1 1 1 2 2 2
4 4 5 6 4 5 3 1 3 5 7 6 5 5 1 1 1 1 2 4 5 6 7 7 8 7 7 6 5 5 5 4 4 3 3 3 2 1 1 1 2 2 2 2
5 4 4 3 2 3 2 3 4 5 6 5 2 4 2 0 1 1 1 2 4 5 6 6 7 7 6 6 5 5 5 5 4 4 4 4 3 2 2 2 2 2 2 2
6 7 5 4 4 4 5 5 4 4 3 2 0 4 2 1 1 2 1 1 2 4 5 6 7 7 7 7 7 6 6 5 5 5 5 4 4 3 3 2 2 2 2 2
6 6 6 5 6 4 5 5 4 3 3 3 3 4 1 1 1 2 2 2 2 3 4 6 6 7 7 8 7 7 6 5 5 6 5 4 4 3 3 3 3 3 2 2
5 4 3 3 3 4 4 5 4 6 5 5 3 2 2 2 1 1 2 2 2 2 3 4 5 7 7 8 8 8 7 6 6 6 5 5 4 4 4 4 3 3 3 2
4 5 3 2 4 1 4 3 4 5 4 5 4 4 2 1 1 1 1 1 1 2 3 3 4 6 7 7 7 7 7 7 6 6 5 4 4 4 4 4 4 4 3 3
6 6 4 4 6 6 5 5 5 5 5 5 5 2 1 2 2 2 1 1 1 2 3 3 4 5 6 6 7 7 7 7 6 6 5 5 4 4 4 4 4 4 4 4
5 5 7 6 2 2 6 7 8 7 6 6 7 4 1 2 2 3 2 2 1 2 3 3 4 5 5 6 7 7 7 7 6 5 5 5 4 5 5 4 4 5 4 4
4 5 6 5 5 4 5 6 8 8 8 8 9 5 1 1 2 2 3 2 2 2 3 3 4 4 5 6 6 6 6 6 5 5 5 5 5 5 5 5 5 5 5 4
4 7 9 9 5 4 6 7 8 9 9 10 11 10 7 6 5 4 4 3 2 3 3 3 4 4 5 5 5 5 5 5 5 5 5 6 6 5 5 5 5 5 5 5
5 8 9 9 8 8 9 10 10 12 13 13 12 12 10 8 6 5 5 4 3 3 3 3 4 4 5 5 5 5 5 5 5 6 6 5 5 5 5 5 5 5 4 4
5 8 9 10 9 9 11 11 12 13 13 14 13 13 9 7 6 5 5 4 3 3 3 3 4 4 5 5 5 5 5 5 5 5 5 5 4 4 4 5 5 5 5 5
5 7 8 10 8 8 12 12 13 12 11 12 13 11 6 6 6 6 5 4 4 3 3 3 4 4 5 5 6 6 5 5 5 5 4 4 4 4 4 5 5 5 5 5
8 8 6 8 8 12 6 2 6 10 11 11 11 8 7 7 6 6 5 4 4 4 3 3 3 3 4 4 5 5 5 5 5 5 4 4 4 4 4 5 5 6 5 5
10 9 7 7 10 11 8 5 6 8 9 7 9 7 6 4 5 5 3 3 4 4 3 3 2 2 3 4 4 4 4 4 4 4 4 4 4 4 4 5 5 5 5 5
6 8 8 8 9 9 4 2 3 6 8 2 4 4 4 3 5 3 1 2 3 2 2 2 2 2 3 3 4 4 4 4 4 4 4 3 3 4 4 5 5 5 5 5
6 7 10 12 11 9 3 1 4 7 3 2 2 3 4 4 4 2 1 1 1 1 1 1 2 2 2 3 4 4 4 4 4 3 3 3 3 4 4 4 4 5 5 5
9 8 9 9 10 8 2 3 5 3 3 2 2 2 3 3 3 2 1 1 1 1 1 2 2 2 2 3 4 4 4 3 3 3 3 3 3 3 3 3 3 4 5 5
10 9 6 8 6 2 2 4 3 3 4 3 4 3 3 4 4 3 3 2 2 2 2 2 2 2 2 3 4 4 3 3 3 3 3 3 3 3 3 3 3 4 4 4
7 5 8 9 9 6 5 6 7 6 6 6 6 5 5 5 5 5 4 3 3 3 3 2 3 3 3 3 3 4 3 3 4 4 4 3 3 3 3 3 3 3 4 4
7 6 8 12 11 9 9 9 9 8 8 8 8 7 6 6 5 5 5 5 4 4 3 4 4 4 4 3 3 3 3 4 4 4 4 3 3 3 3 3 3 3 3 3
9 10 11 12 11 11 11 9 9 10 9 9 8 8 7 7 6 6 6 5 5 5 4 4 4 5 4 4 3 3 3 4 4 4 4 3 3 3 3 3 2 1 2 2
Wind_Direction
195 210 210 212 228 262 265 272 292 306 281 259 272 282 282 233 217 221 215 207 202 198 189 181 181 184 186 185 185 173 175 165 157 153 154 131 110 97 85 75 80 84 78 87
203 209 217 223 212 229 243 264 287 299 273 267 286 289 279 245 228 229 225 216 205 199 191 181 184 184 189 184 184 175 170 168 157 152 151 140 125 110 104 101 98 93 91 87
223 193 178 201 208 225 247 268 292 300 294 251 278 271 237 211 215 224 229 226 216 207 203 188 189 187 187 189 187 184 176 164 160 158 154 155 146 162 152 136 118 100 104 104
227 214 206 222 225 243 254 273 274 279 281 285 280 295 266 206 215 214 219 217 215 208 206 196 192 190 189 189 187 186 175 167 163 164 174 177 187 163 158 142 142 138 130 136
214 207 216 229 238 247 277 256 252 265 271 274 254 272 255 174 227 221 209 211 210 204 202 196 195 193 190 183 182 184 176 175 174 179 180 206 201 179 167 174 166 160 142 162
235 218 235 247 241 229 199 211 221 232 251 257 254 270 278 163 312 322 209 193 196 196 196 197 192 190 188 182 180 183 186 185 186 196 200 209 206 208 208 210 191 183 170 181
218 212 209 217 226 196 221 256 259 235 231 254 147 265 273 18 338 310 279 205 179 183 191 194 194 193 189 188 188 189 194 195 195 203 210 210 216 227 229 230 212 214 195 190
223 214 198 208 236 240 227 252 271 288 287 291 246 256 292 48 316 286 243 197 174 174 191 195 196 195 192 192 192 196 200 201 198 208 214 217 214 228 238 242 241 234 234 221
230 214 163 211 238 245 228 235 276 283 281 275 250 250 255 194 195 180 168 160 169 181 188 195 193 195 194 195 197 199 199 201 203 211 212 217 222 230 240 245 245 241 239 231
243 248 216 178 183 208 265 234 226 251 275 272 263 254 245 229 245 234 218 168 166 174 185 188 194 197 198 197 199 202 204 204 205 211 213 220 234 234 241 240 239 239 235 227
232 243 221 201 223 229 195 210 239 250 263 277 282 273 14 301 298 282 282 263 218 198 192 189 192 192 195 194 197 201 205 209 210 213 217 220 229 238 239 236 238 239 237 225
216 244 245 235 223 277 247 248 240 252 254 259 277 282 82 271 293 285 285 268 232 209 195 186 185 182 190 196 199 201 205 210 213 215 218 225 229 235 237 235 233 231 229 225
193 231 246 230 200 196 228 238 243 255 263 257 262 264 146 265 276 276 274 270 247 218 203 188 184 188 192 195 197 200 204 206 204 208 217 225 228 230 234 235 234 235 232 225
219 237 245 254 271 255 244 236 233 240 253 259 259 272 270 272 273 274 278 275 256 229 211 202 195 195 196 196 196 197 200 201 199 202 213 224 230 231 235 234 233 231 230 226
226 248 249 260 268 261 258 252 239 242 255 265 273 273 275 277 277 274 271 262 244 234 225 214 207 202 196 196 196 197 197 200 202 205 214 221 227 229 230 226 225 223 224 229
233 250 253 255 253 254 258 256 249 248 254 259 268 270 274 279 271 267 260 245 239 244 242 232 219 207 203 199 198 197 197 199 203 208 214 215 223 222 227 225 220 219 221 225
224 239 250 256 252 259 254 249 244 244 246 252 260 269 270 270 267 267 258 244 242 245 248 244 229 213 210 206 200 199 200 197 202 209 214 215 221 224 225 222 216 216 218 221
234 236 245 259 252 249 259 249 245 248 255 253 261 270 266 269 278 267 252 247 255 256 258 255 239 218 209 201 196 194 191 195 200 207 211 211 216 220 219 216 217 219 222 219
228 229 237 247 252 258 257 240 229 242 258 253 252 258 262 270 262 243 242 272 269 262 263 258 236 212 198 192 191 188 186 190 198 206 210 210 214 214 215 216 218 221 222 219
203 222 235 240 250 255 264 224 223 246 255 247 241 243 243 222 249 263 296 271 278 273 258 243 218 200 189 184 184 188 192 196 207 214 217 213 214 217 221 221 219 219 217 215
193 206 227 241 249 259 286 152 193 234 283 58 233 242 223 228 285 334 328 269 277 271 241 211 198 197 191 182 182 192 203 217 222 219 218 217 220 228 229 225 220 217 214 210
222 221 227 237 244 250 142 169 220 282 358 355 297 272 250 272 312 308 289 277 276 276 237 210 198 195 192 190 191 197 213 225 217 208 211 214 217 222 224 221 221 215 212 211
231 235 240 235 251 317 182 220 266 310 292 308 304 293 276 285 289 281 274 270 263 255 241 230 213 207 203 203 209 215 215 211 202 203 211 213 212 216 220 215 210 210 211 218
233 246 244 249 255 259 256 260 270 277 284 298 292 278 267 275 284 283 273 265 262 253 242 237 225 224 224 215 220 230 219 204 205 209 214 212 211 213 212 215 217 214 214 216
246 230 245 254 261 267 258 255 265 273 281 287 282 272 266 268 270 270 266 262 259 251 243 237 235 236 233 221 221 225 212 207 213 214 212 212 213 212 212 217 226 228 223 223
235 239 247 258 265 266 271 275 273 268 267 268 268 268 265 263 263 264 263 260 255 246 243 242 240 238 234 224 221 216 211 211 215 216 216 218 218 219 221 221 220 188 220 193
Height
1536 1534 1534 1533 1533 1534 1535 1537 1537 1535 1535 1537 1535 1533 1532 1535 1537 1537 1538 1539 1540 1542 1544 1546 1547 1548 1549 1550 1551 1551 1552 1552 1552 1552 1552 1552 1552 1552 1552 1552 1551 1551 1551 1551
1533 1533 1532 1533 1535 1536 1535 1537 1535 1534 1534 1535 1533 1531 1529 1531 1533 1534 1535 1536 1538 1540 1542 1544 1545 1546 1548 1549 1550 1551 1551 1551 1551 1551 1552 1552 1552 1552 1552 1552 1551 1551 1551 1551
1532 1532 1533 1534 1534 1535 1535 1535 1535 1535 1534 1532 1533 1530 1527 1528 1531 1533 1534 1534 1535 1538 1540 1542 1543 1545 1546 1547 1548 1549 1550 1550 1550 1551 1551 1551 1552 1552 1552 1552 1551 1551 1551 1550
1531 1532 1533 1533 1533 1532 1535 1532 1534 1535 1535 1533 1533 1535 1525 1524 1526 1529 1531 1532 1534 1536 1538 1540 1541 1543 1545 1546 1547 1548 1549 1550 1550 1550 1551 1551 1552 1552 1552 1552 1551 1551 1550 1550
1530 1531 1532 1532 1531 1532 1531 1533 1533 1533 1533 1532 1530 1532 1525 1522 1524 1524 1527 1530 1531 1534 1535 1537 1539 1541 1543 1544 1545 1547 1548 1548 1549 1549 1550 1550 1551 1551 1551 1551 1551 1550 1550 1550
1529 1531 1531 1530 1531 1532 1532 1533 1532 1531 1530 1537 1530 1532 1528 1521 1522 1522 1525 1527 1530 1532 1533 1535 1537 1539 1541 1542 1543 1545 1546 1547 1547 1548 1548 1549 1549 1550 1550 1550 1550 1550 1549 1549
1530 1529 1530 1531 1531 1531 1531 1533 1538 1538 1538 1534 1528 1531 1526 1519 1521 1523 1524 1526 1528 1530 1531 1533 1535 1536 1538 1540 1541 1543 1544 1545 1545 1546 1547 1548 1548 1548 1549 1549 1549 1549 1549 1548
1532 1532 1527 1528 1528 1529 1528 1530 1540 1545 1540 1532 1528 1529 1521 1520 1522 1524 1524 1526 1527 1528 1530 1531 1532 1534 1535 1537 1539 1540 1542 1543 1544 1545 1546 1546 1547 1546 1547 1547 1547 1547 1547 1547
1528 1529 1527 1528 1528 1527 1528 1528 1526 1531 1531 1535 1526 1522 1519 1519 1520 1522 1523 1525 1526 1527 1528 1529 1530 1532 1533 1535 1536 1538 1540 1541 1542 1543 1543 1544 1545 1545 1545 1545 1545 1545 1545 1545
1524 1530 1526 1528 1529 1529 1527 1525 1529 1532 1539 1538 1530 1525 1521 1518 1518 1520 1521 1523 1525 1526 1527 1528 1528 1529 1531 1533 1534 1536 1537 1539 1539 1540 1541 1541 1542 1542 1542 1543 1543 1543 1543 1543
1524 1527 1528 1527 1527 1525 1528 1529 1527 1527 1529 1535 1535 1526 1514 1516 1517 1518 1520 1522 1523 1524 1525 1526 1527 1527 1529 1530 1532 1533 1535 1536 1537 1538 1539 1539 1539 1540 1540 1540 1540 1540 1541 1541
1524 1524 1525 1524 1524 1525 1524 1523 1524 1530 1529 1528 1529 1525 1513 1516 1517 1518 1519 1521 1522 1522 1523 1524 1525 1526 1527 1528 1529 1531 1532 1533 1534 1535 1536 1536 1537 1537 1537 1537 1538 1538 1538 1538
1525 1525 1529 1528 1528 1527 1525 1523 1523 1522 1523 1524 1528 1523 1513 1515 1517 1518 1519 1519 1520 1521 1521 1522 1523 1523 1524 1525 1527 1528 1529 1530 1531 1532 1532 1533 1534 1534 1534 1535 1535 1535 1536 1536
1525 1521 1525 1529 1523 1521 1523 1524 1524 1524 1523 1521 1518 1515 1511 1512 1514 1516 1517 1517 1518 1519 1519 1520 1520 1521 1522 1523 1524 1525 1526 1527 1528 1529 1529 1530 1531 1531 1531 1532 1532 1532 1533 1533
1523 1520 1518 1518 1518 1520 1520 1520 1521 1521 1517 1517 1512 1511 1508 1509 1512 1514 1515 1515 1516 1517 1517 1517 1518 1519 1519 1520 1521 1522 1523 1524 1525 1526 1527 1527 1528 1528 1528 1529 1529 1529 1530 1530
1521 1520 1518 1519 1518 1519 1519 1516 1516 1517 1514 1512 1511 1509 1506 1508 1510 1512 1512 1513 1514 1514 1514 1515 1515 1516 1517 1517 1518 1519 1520 1521 1522 1523 1524 1524 1525 1525 1525 1525 1526 1526 1527 1527
1520 1519 1520 1518 1516 1517 1516 1509 1510 1510 1508 1508 1508 1504 1505 1507 1508 1509 1510 1511 1511 1512 1512 1512 1513 1513 1514 1515 1515 1516 1517 1518 1519 1520 1520 1520 1521 1521 1521 1522 1522 1523 1523 1524
1518 1518 1518 1517 1517 1522 1505 1502 1504 1505 1503 1503 1502 1503 1505 1506 1507 1507 1508 1509 1509 1509 1510 1510 1510 1510 1511 1511 1512 1513 1514 1515 1516 1516 1517 1517 1517 1517 1517 1518 1518 1519 1520 1520
1516 1516 1517 1516 1516 1509 1502 1502 1503 1504 1501 1500 1501 1502 1504 1505 1505 1504 1505 1506 1507 1507 1507 1507 1507 1508 1508 1508 1509 1510 1511 1512 1512 1512 1513 1513 1513 1513 1513 1514 1514 1515 1516 1517
1516 1515 1515 1515 1516 1512 1501 1499 1501 1503 1500 1499 1500 1501 1502 1503 1501 1500 1503 1503 1504 1504 1504 1504 1504 1505 1505 1506 1506 1507 1508 1508 1508 1509 1509 1509 1510 1510 1510 1510 1511 1511 1512 1513
1513 1514 1514 1512 1511 1502 1498 1501 1502 1505 1499 1499 1499 1500 1501 1501 1501 1502 1501 1502 1502 1502 1501 1502 1502 1502 1503 1503 1504 1504 1505 1505 1505 1506 1506 1506 1506 1506 1506 1507 1507 1507 1508 1509
1504 1507 1508 1507 1509 1504 1499 1501 1500 1498 1498 1499 1499 1499 1500 1501 1500 1500 1500 1500 1499 1499 1499 1499 1499 1500 1500 1501 1501 1502 1502 1502 1502 1502 1502 1502 1503 1503 1503 1503 1503 1504 1504 1505
1500 1499 1498 1500 1499 1498 1499 1499 1499 1499 1499 1498 1498 1498 1499 1499 1498 1498 1498 1497 1497 1497 1497 1497 1497 1497 1498 1498 1498 1499 1499 1499 1499 1499 1499 1499 1499 1499 1499 1499 1499 1500 1500 1501
1498 1500 1499 1497 1494 1497 1498 1498 1497 1497 1497 1497 1497 1497 1496 1496 1496 1496 1495 1495 1495 1495 1494 1494 1494 1494 1494 1495 1495 1495 1496 1495 1496 1496 1495 1495 1495 1495 1495 1495 1496 1496 1496 1496
1497 1499 1496 1493 1493 1494 1494 1494 1494 1494 1494 1494 1494 1494 1494 1493 1493 1493 1492 1492 1492 1492 1492 1492 1491 1491 1491 1491 1491 1492 1492 1492 1492 1492 1492 1492 1492 1492 1492 1492 1491 1491 1492 1492
1497 1496 1494 1490 1490 1491 1490 1491 1491 1490 1490 1490 1490 1490 1490 1490 1489 1489 1489 1489 1488 1488 1488 1488 1488 1488 1488 1488 1488 1488 1488 1489 1489 1489 1489 1489 1489 1488 1488 1488 1488 1487 1488 1488